BEIDOU-3 G2

Last updated on Fri Jul 11 2025 00:02:45 GMT+0000 (Coordinated Universal Time)

1 45344U 20017A 25191.63825236 -.00000131 00000+0 00000+0 0 9997 2 45344 2.9117 40.9414 0001974 59.8326 137.8102 1.00270907 19837
UTC large
Height (km)
Speed (km/s)
/
Latitude / Longitude
Inclination (degrees)
Orbital Period (minutes)
Azimuth
Elevation
Range (km)
Doppler Factor

Next 0 passes for location: London (51.5072 / 0.1276)

Sorry there are no passes over London.